STARLINK-2701 (48656 NORAD) Tracking and Keplerian Element Data

This shows tracking and keplerian element data for the satellite.

Feedback or suggestion? Click here.




ElementValue
Catalog48656
NameSTARLINK-2701
Epoch Orbit2238
Epoch Day288.01184488
Epoch Year2021
RAAN134.2653
Inclination53.0544
Eccentricity0.0001943
Argument of Perigee77.9401
Mean Anonmoly282.1806
Mean Motion15.06405195
Decay Rate-4.957E-05
L11 48656U 21044U 21288.01184488 -.00004957 00000-0 -31402-3 0 9995
L22 48656 53.0544 134.2653 0001943 77.9401 282.1806 15.06405195 22389

Live tracking and technical data element details for STARLINK-2701 (NORAD 48656). STARLINK-2701 can be tracked NOW for your location showing map with azimuth and elevation plus other details from your city location.

Track the satellite on the map from your city or location and see movement details for azimuth, elevation, latitude, longitude, range, height, and movement on the map or in text.







IsCatalogInMostPopularTable: catalog: 48656, numindb: 33
Update: records affected: 1



GetName: 48656 STARLINK-2701

Hit Count: updated at: Tue, 19 Oct 2021 08:48:56 GMT